Flag for France Weather past 2 weeks in Rodez, France

Now
46 °F

Mostly cloudy.


Feels Like: 42 °F
Forecast: 35 / 49 °F
Wind: 9 mph from Northwest

Location: Rodez Airport

Current Time: Dec 19, 2014 at 12:18:12 PM

Latest Report: Dec 19, 2014 at 12:00 PM


Visibility: N/A

Pressure: 30.42 "Hg

Humidity: 93%

Dew point: 45 °F

Location of RodezLocation

Historic Weather in Rodez — Graph

°F

Rodez temperature yesterday

Maximum temperature yesterday: 52 °F (at 12:30 PM)
Minimum temperature yesterday: 48 °F (at 12:00 AM)
Average temperature yesterday: 50 °F

Past Weeks' High & Low Weather Summary

 TemperatureHumidityPressure
High55 °F (Dec 13, 12:30 PM)100% (Dec 5, 3:30 AM)30.45 "Hg (Dec 5, 3:30 AM)
Low23 °F (Dec 10, 2:30 AM)53% (Dec 9, 2:00 PM)29.83 "Hg (Dec 13, 3:00 AM)
Average41 °F90%30.14 "Hg
* Reported Dec 4 11:00 AM — Dec 19 11:00 AM, Rodez, Weather by CustomWeather, © 2014

Note: Actual official high and low records may vary slightly from our data, if they occured in-between our weather recording intervals... More about our weather records

Advertising

Rodez weather history for previous 24 hours

 ConditionsComfort  
Time TempWeatherWind HumidityBarometerVisibility
11:00 AM
Dec 19
46 °FMostly cloudy.8 mph93%30.42 "Hg6 mi
10:30 AM46 °FMostly cloudy.8 mph93%30.42 "HgN/A
10:00 AM45 °FMostly cloudy.5 mph100%30.39 "HgN/A
9:30 AM45 °FMostly cloudy.5 mph100%30.39 "HgN/A
9:00 AM45 °FDrizzle. Fog.6 mph100%30.39 "Hg1 mi
8:30 AM45 °FMostly cloudy.7 mph100%30.39 "HgN/A
8:00 AM45 °FMostly cloudy.8 mph100%30.39 "HgN/A
7:30 AM45 °FDrizzle. Fog.7 mph100%30.39 "Hg1 mi
7:00 AM45 °FFog.7 mph100%30.36 "Hg1 mi
6:30 AM45 °FDrizzle. Fog.9 mph100%30.36 "Hg1 mi
6:00 AM45 °FMostly cloudy.9 mph100%30.36 "Hg4 mi
5:30 AM46 °FDrizzle. Fog.9 mph93%30.36 "Hg2 mi
4:30 AM46 °FFog.8 mph100%30.36 "Hg2 mi
4:00 AM46 °FMostly cloudy.7 mph100%30.39 "Hg4 mi
3:30 AM46 °FMostly cloudy.8 mph100%30.39 "HgN/A
3:00 AM46 °FDrizzle. Low clouds.10 mph100%30.39 "Hg4 mi
2:30 AM48 °FDrizzle. Fog.13 mph94%30.39 "Hg2 mi
2:00 AM48 °FDrizzle. Fog.9 mph94%30.39 "Hg2 mi
1:30 AM48 °FLow clouds.6 mph94%30.39 "HgN/A
1:00 AM48 °FDrizzle. Mostly cloudy.10 mph100%30.39 "Hg4 mi
12:30 AM48 °FDrizzle. Fog.9 mph100%30.39 "Hg1 mi
12:00 AM48 °FDrizzle. Fog.9 mph100%30.39 "Hg3 mi
11:30 PM
Dec 18
48 °FLow clouds.8 mph100%30.39 "HgN/A
11:00 PM50 °FFog.10 mph94%30.39 "Hg2 mi
10:30 PM50 °FDrizzle. Fog.9 mph94%30.39 "Hg1 mi
10:00 PM50 °FDrizzle. Fog.10 mph100%30.39 "Hg1 mi
9:30 PM50 °FFog.9 mph100%30.39 "Hg3 mi
9:00 PM50 °FLow clouds.10 mph100%30.39 "HgN/A
8:30 PM50 °FFog.7 mph100%30.36 "Hg2 mi
8:00 PM50 °FFog.8 mph100%30.36 "Hg2 mi
7:30 PM50 °FDrizzle. Fog.8 mph100%30.36 "Hg1 mi
7:00 PM50 °FLight rain. Fog.10 mph100%30.36 "Hg2 mi
6:30 PM50 °FDrizzle. Fog.12 mph100%30.36 "Hg2 mi
6:00 PM50 °FDrizzle. Fog.10 mph100%30.36 "Hg1 mi
5:30 PM50 °FMostly cloudy.13 mph94%30.33 "HgN/A
5:00 PM50 °FMostly cloudy.14 mph100%30.33 "HgN/A
4:30 PM50 °FLow clouds.12 mph100%30.33 "HgN/A
4:00 PM50 °FFog.14 mph100%30.33 "Hg3 mi
3:30 PM52 °FLow clouds.16 mph94%30.33 "HgN/A
3:00 PM52 °FDrizzle. Fog.10 mph94%30.33 "Hg2 mi
2:30 PM52 °FDrizzle. Fog.12 mph100%30.30 "Hg1 mi
2:00 PM52 °FLow clouds.17 mph94%30.30 "Hg5 mi
1:30 PM52 °FFog.13 mph94%30.30 "Hg2 mi
1:00 PM52 °FDrizzle. Fog.15 mph94%30.33 "Hg1 mi
12:30 PM52 °FDrizzle. Fog.17 mph94%30.33 "Hg1 mi
12:00 PM50 °FFog.13 mph100%30.33 "Hg1 mi
Weather by CustomWeather, © 2014

See weather overviewHow to use our weather pages